EW5800 Burnaby CA current weather conditions

sailwx.info

Wind from 207

Air temperature 15.0° C
Dewpoint 11.0° C

Last reported at 2020-Jul-08 05:01 UTC.
Time now 2020-Jul-08 05:24 UTC

Location: N 49°16' W 122°59'.
View on Google Maps.

See reports from other nearby stations

  
Tides and Currents Weather Stations Pressure Air Temp Water Temp Dewpoint Dewpoint Depression Visibility Wind Speed Wind Dir Waves Ship Positions
date/time (UTC)wind fromknots sea level pressurealtimeterstation pressurevisibilityair tempwater tempwave heightnotes
2020-Jul-08 05:01 207 15.0
2020-Jul-08 04:46 207 16.1
2020-Jul-08 04:30 243 16.1
2020-Jul-08 04:15 160 16.7
2020-Jul-08 04:01 061 17.2
2020-Jul-08 03:45 062 17.2
2020-Jul-08 03:31 072 17.2
2020-Jul-08 03:15 072 17.2
2020-Jul-08 03:00 072 17.8
2020-Jul-08 02:45 072 17.8
2020-Jul-08 02:30 072 17.8
2020-Jul-08 02:15 063 17.8
2020-Jul-08 02:00 061 18.3
2020-Jul-08 01:45 059 18.3
2020-Jul-08 01:30 075 18.9
2020-Jul-08 01:16 337 18.3
2020-Jul-08 01:00 359 18.9
2020-Jul-08 00:45 098 18.9
2020-Jul-08 00:30 070 18.9
2020-Jul-08 00:15 013 18.9
2020-Jul-08 00:00 236 20.0
2020-Jul-07 23:45 103 20.6
2020-Jul-07 23:30 148 21.1
2020-Jul-07 23:15 113 0 gusting 3 21.1
2020-Jul-07 23:00 099 21.7
2020-Jul-07 22:45 106 21.7
2020-Jul-07 22:30 230 21.1
2020-Jul-07 22:15 252 0 gusting 3 20.6
2020-Jul-07 22:01 148 20.6
2020-Jul-07 21:46 128 19.4
2020-Jul-07 21:31 169 19.4
2020-Jul-07 21:18 158 18.9
2020-Jul-07 21:01 208 17.8
2020-Jul-07 20:45 100 17.8
2020-Jul-07 20:31 069 17.8
2020-Jul-07 17:00 061 1 gusting 5 15.6
2020-Jul-07 16:45 042 0 gusting 5 15.0
2020-Jul-07 16:30 063 15.0
2020-Jul-07 16:15 043 0 gusting 6 14.4
2020-Jul-07 16:01 038 0 gusting 6 14.4
2020-Jul-07 13:15 055 12.8
2020-Jul-07 13:00 072 12.8
2020-Jul-07 12:45 064 12.8
2020-Jul-07 12:31 060 12.8
2020-Jul-07 12:16 055 13.3
2020-Jul-07 12:01 063 12.8
2020-Jul-07 11:46 053 0 gusting 5 12.8
2020-Jul-07 11:31 052 0 gusting 5 13.3
2020-Jul-07 11:15 051 1 gusting 4 13.9
2020-Jul-07 11:01 075 14.4
2020-Jul-07 10:47 119 14.4
2020-Jul-07 10:31 064 15.6
2020-Jul-07 10:15 055 15.6
2020-Jul-07 10:01 065 15.6
2020-Jul-07 09:46 067 15.6
2020-Jul-07 09:31 067 15.6
2020-Jul-07 09:15 195 15.6
2020-Jul-07 09:00 203 15.6
2020-Jul-07 08:45 153 15.6
2020-Jul-07 08:30 094 15.6
2020-Jul-07 08:15 058 16.1
2020-Jul-07 08:00 053 16.1
2020-Jul-07 07:46 049 16.1
2020-Jul-07 07:31 062 16.1
2020-Jul-07 07:15 051 16.1
2020-Jul-07 07:00 056 16.1
2020-Jul-07 06:45 053 16.1
2020-Jul-07 06:30 067 16.1
2020-Jul-07 06:15 073 15.6
2020-Jul-07 06:00 073 15.6
2020-Jul-07 05:45 073 15.6
2020-Jul-07 05:30 073 15.6
2020-Jul-07 05:15 073 16.1
2020-Jul-07 05:00 073 16.1
2020-Jul-07 04:45 081 16.1
2020-Jul-07 04:30 081 16.7
2020-Jul-07 04:15 081 17.2
2020-Jul-07 04:00 084 17.2
2020-Jul-07 03:45 206 17.8
2020-Jul-07 03:30 207 17.8
2020-Jul-07 03:15 124 18.3
2020-Jul-07 03:00 149 18.9
2020-Jul-07 02:45 079 19.4
2020-Jul-07 02:30 197 19.4
2020-Jul-07 02:15 110 0 gusting 3 20.0
2020-Jul-07 02:02 203 0 gusting 3 19.4
2020-Jul-07 01:46 210 20.0
2020-Jul-07 01:31 113 20.6
2020-Jul-07 01:16 119 21.7
2020-Jul-07 01:02 108 21.7
2020-Jul-07 00:46 046 0 gusting 6 20.6
2020-Jul-07 00:32 054 0 gusting 5 22.2
2020-Jul-07 00:17 102 22.2
2020-Jul-07 00:01 146 0 gusting 2 22.8
2020-Jul-06 23:46 194 0 gusting 2 22.8
2020-Jul-06 23:31 210 21.7
2020-Jul-06 23:16 125 21.7
2020-Jul-06 23:01 203 0 gusting 5 22.2
2020-Jul-06 22:46 192 23.3
2020-Jul-06 22:30 115 23.3
2020-Jul-06 22:15 212 0 gusting 3 21.7
2020-Jul-06 22:00 164 22.2
2020-Jul-06 21:46 153 22.8
2020-Jul-06 21:31 146 0 gusting 4 23.3
2020-Jul-06 21:16 076 1 gusting 4 23.9
2020-Jul-06 21:00 119 22.2
2020-Jul-06 20:45 059 2 gusting 4 22.8
2020-Jul-06 20:30 044 23.9
2020-Jul-06 20:15 115 0 gusting 4 23.3
2020-Jul-06 20:00 118 0 gusting 4 22.2
2020-Jul-06 19:46 097 21.1
2020-Jul-06 19:30 143 21.1
2020-Jul-06 19:15 086 0 gusting 2 20.6
2020-Jul-06 19:00 081 19.4
2020-Jul-06 18:45 053 19.4
2020-Jul-06 18:30 069 0 gusting 3 20.0
2020-Jul-06 18:15 134 20.6
2020-Jul-06 18:00 180 21.1
2020-Jul-06 17:45 085 1 gusting 6 18.9
2020-Jul-06 17:30 063 1 gusting 6 20.0
2020-Jul-06 17:15 039 19.4
2020-Jul-06 17:00 219 0 gusting 4 18.9
2020-Jul-06 16:45 057 0 gusting 3 18.3
2020-Jul-06 16:30 058 0 gusting 4 18.3
2020-Jul-06 16:16 053 17.8
2020-Jul-06 16:01 052 1 gusting 3 17.2
2020-Jul-06 15:46 100 17.2
2020-Jul-06 15:32 201 17.2
2020-Jul-06 15:18 013 16.7
2020-Jul-06 15:01 209 15.6
2020-Jul-06 14:46 053 14.4
2020-Jul-06 14:31 051 0 gusting 3 13.9
2020-Jul-06 14:17 047 0 gusting 2 13.9
2020-Jul-06 14:01 032 12.8
2020-Jul-06 13:46 336 12.2
2020-Jul-06 13:31 336 12.2
2020-Jul-06 13:15 336 12.2
2020-Jul-06 13:01 336 11.7
2020-Jul-06 12:46 336 11.7
2020-Jul-06 12:30 336 11.1
2020-Jul-06 12:16 337 11.7
2020-Jul-06 12:00 335 11.1
2020-Jul-06 11:46 335 11.1
2020-Jul-06 11:31 336 11.1
2020-Jul-06 11:16 335 11.1
2020-Jul-06 11:00 335 11.7
2020-Jul-06 10:45 335 11.7
2020-Jul-06 10:30 335 11.7
2020-Jul-06 10:15 340 11.7
2020-Jul-06 10:00 340 12.2
2020-Jul-06 09:45 340 12.2
2020-Jul-06 09:31 340 12.2
2020-Jul-06 09:16 340 12.2
2020-Jul-06 09:00 340 12.8
2020-Jul-06 08:45 340 12.8
2020-Jul-06 08:30 340 12.8
2020-Jul-06 08:15 340 12.8
2020-Jul-06 08:00 340 13.3
2020-Jul-06 07:46 340 13.9
2020-Jul-06 07:31 340 13.9
2020-Jul-06 07:17 312 13.9
2020-Jul-06 07:01 344 13.9
2020-Jul-06 06:47 008 13.9
2020-Jul-06 06:31 008 13.9
2020-Jul-06 06:16 012 14.4
2020-Jul-06 06:01 012 14.4
2020-Jul-06 05:46 011 15.0
2020-Jul-06 05:32 012 15.6
2020-Jul-06 05:16 011 15.6
2020-Jul-06 05:01 012 16.1